Location: München
(48.1351°N, 11.5820°E)
Time: 17:11:32
(UTC+01:00)

ISS - Pass Details

Date: 28 January 2020
Orbit: 415 x 422 km, 51.6° (Epoch: 26 February)

Event Time Altitude Azimuth Distance (km) Brightness Sun altitude
Rises 20:01:03 0° 287° (WNW) 2,379 1.2 -29.1°
Reaches altitude 10° 20:03:12 10° 293° (WNW) 1,512 -0.1 -29.5°
Enters shadow 20:03:56 15° 297° (WNW) 1,232 -0.7 -29.6°
